• In Netherlands
  • List of Countries
  • For 7 days
  • Water Temperature
  • Satellite Maps
  • Weather Map
  • Weather Widgets
  • user-avatar
    Login

    Hourly Weather Lowech

    Today, 16 December, Saturday

    Time Temperature Precipitation Wind Pressure Humidity
    00:00 +9°C° 0 mm 2 mps 730 mmHg 64%
    01:00 +9°C° 0 mm 3 mps 729 mmHg 65%
    02:00 +9°C° 0 mm 3 mps 729 mmHg 65%
    03:00 +9°C° 0 mm 3 mps 729 mmHg 66%
    04:00 +8°C° 0 mm 3 mps 728 mmHg 67%
    05:00 +8°C° 0 mm 3 mps 728 mmHg 67%
    06:00 +8°C° 0 mm 3 mps 728 mmHg 68%
    07:00 +8°C° 0 mm 3 mps 728 mmHg 68%
    08:00 +8°C° 0 mm 3 mps 728 mmHg 68%
    09:00 +10°C° 0 mm 3 mps 728 mmHg 64%
    10:00 +12°C° 0 mm 3 mps 728 mmHg 60%
    11:00 +13°C° 0 mm 3 mps 728 mmHg 55%
    12:00 +14°C° 0 mm 3 mps 729 mmHg 55%
    13:00 +14°C° 0 mm 3 mps 729 mmHg 54%
    14:00 +16°C° 0 mm 3 mps 729 mmHg 53%
    15:00 +14°C° 0.1 mm 2 mps 729 mmHg 61%
    16:00 +13°C° 0.1 mm 2 mps 729 mmHg 69%
    17:00 +11°C° 0.1 mm 1 mps 730 mmHg 77%
    18:00 +10°C° 0.7 mm 1 mps 730 mmHg 81%
    19:00 +9°C° 0.7 mm 2 mps 730 mmHg 85%
    20:00 +8°C° 0.7 mm 2 mps 730 mmHg 89%
    21:00 +8°C° 1.3 mm 2 mps 730 mmHg 90%
    22:00 +7°C° 1.3 mm 2 mps 730 mmHg 91%
    23:00 +7°C° 1.3 mm 2 mps 730 mmHg 92%

    Tomorrow, 17 December, Sunday

    Time Temperature Precipitation Wind Pressure Humidity
    00:00 +7°C° 0.9 mm 2 mps 731 mmHg 91%
    01:00 +6°C° 0.9 mm 2 mps 731 mmHg 91%
    02:00 +6°C° 0.9 mm 2 mps 731 mmHg 90%
    03:00 +6°C° 0.6 mm 2 mps 731 mmHg 89%
    04:00 +6°C° 0.6 mm 2 mps 731 mmHg 88%
    05:00 +5°C° 0.6 mm 2 mps 731 mmHg 87%
    06:00 +5°C° 0.8 mm 2 mps 731 mmHg 87%
    07:00 +6°C° 0.8 mm 1 mps 732 mmHg 88%
    08:00 +6°C° 0.8 mm 1 mps 732 mmHg 88%
    09:00 +6°C° 0.6 mm 1 mps 732 mmHg 87%
    10:00 +6°C° 0.6 mm 1 mps 733 mmHg 87%
    11:00 +6°C° 0.6 mm 1 mps 733 mmHg 86%
    12:00 +5°C° 0.4 mm 2 mps 733 mmHg 85%
    13:00 +5°C° 0.4 mm 2 mps 733 mmHg 85%
    14:00 +5°C° 0.4 mm 2 mps 733 mmHg 85%
    15:00 +5°C° 0.3 mm 2 mps 733 mmHg 85%
    16:00 +5°C° 0.3 mm 2 mps 734 mmHg 86%
    17:00 +4°C° 0.3 mm 2 mps 734 mmHg 86%
    18:00 +4°C° 0.2 mm 2 mps 735 mmHg 86%
    19:00 +4°C° 0.2 mm 2 mps 735 mmHg 85%
    20:00 +4°C° 0.2 mm 2 mps 736 mmHg 85%
    21:00 +3°C° 0.1 mm 2 mps 736 mmHg 84%
    22:00 +3°C° 0.1 mm 2 mps 737 mmHg 83%
    23:00 +3°C° 0.1 mm 2 mps 737 mmHg 82%

    Day after tomorrow, 18 December, Monday

    Time Temperature Precipitation Wind Pressure Humidity
    00:00 +3°C° 0 mm 2 mps 737 mmHg 82%
    01:00 +2°C° 0 mm 2 mps 738 mmHg 81%
    02:00 +2°C° 0 mm 2 mps 738 mmHg 81%
    03:00 +2°C° 0 mm 2 mps 738 mmHg 81%
    04:00 +2°C° 0 mm 2 mps 738 mmHg 81%
    05:00 +1°C° 0 mm 2 mps 738 mmHg 80%
    06:00 +1°C° 0 mm 2 mps 738 mmHg 80%
    07:00 +1°C° 0 mm 2 mps 739 mmHg 80%
    08:00 +1°C° 0 mm 2 mps 739 mmHg 80%
    09:00 +2°C° 0 mm 2 mps 739 mmHg 75%
    10:00 +1°C° 0 mm 3 mps 740 mmHg 71%
    11:00 +2°C° 0 mm 3 mps 740 mmHg 66%
    12:00 +2°C° 0 mm 3 mps 739 mmHg 66%
    13:00 +2°C° 0 mm 3 mps 739 mmHg 66%
    14:00 +2°C° 0 mm 3 mps 739 mmHg 66%
    15:00 +2°C° 0.1 mm 3 mps 739 mmHg 68%
    16:00 +1°C° 0.1 mm 3 mps 739 mmHg 71%
    17:00 +1°C° 0.1 mm 3 mps 739 mmHg 74%
    18:00 0°C° 0.1 mm 3 mps 739 mmHg 74%
    19:00 0°C° 0.1 mm 3 mps 739 mmHg 75%
    20:00 0°C° 0.1 mm 3 mps 740 mmHg 76%
    21:00 0°C° 0.1 mm 3 mps 740 mmHg 76%
    22:00 -1°C° 0.1 mm 2 mps 741 mmHg 76%
    23:00 -1°C° 0.1 mm 2 mps 741 mmHg 76%

    19 December, Tuesday

    Time Temperature Precipitation Wind Pressure Humidity
    00:00 -1°C° 0 mm 2 mps 741 mmHg 76%
    01:00 -1°C° 0 mm 2 mps 741 mmHg 77%
    02:00 -2°C° 0 mm 2 mps 742 mmHg 77%
    03:00 -2°C° 0 mm 2 mps 742 mmHg 77%
    04:00 -2°C° 0 mm 2 mps 742 mmHg 77%
    05:00 -1°C° 0 mm 1 mps 742 mmHg 77%
    06:00 -1°C° 0 mm 1 mps 743 mmHg 76%
    07:00 -1°C° 0 mm 1 mps 743 mmHg 76%
    08:00 -1°C° 0 mm 1 mps 744 mmHg 75%
    09:00 0°C° 0 mm 1 mps 744 mmHg 72%
    10:00 -1°C° 0 mm 2 mps 745 mmHg 70%
    11:00 +1°C° 0 mm 2 mps 745 mmHg 67%
    12:00 +1°C° 0.1 mm 2 mps 745 mmHg 69%
    13:00 +1°C° 0.1 mm 2 mps 745 mmHg 71%
    14:00 +1°C° 0.1 mm 2 mps 745 mmHg 73%
    15:00 +1°C° 0.1 mm 2 mps 745 mmHg 76%
    16:00 -1°C° 0.1 mm 2 mps 746 mmHg 80%
    17:00 -1°C° 0.1 mm 2 mps 746 mmHg 84%
    18:00 -1°C° 0.1 mm 2 mps 746 mmHg 85%
    19:00 -2°C° 0.1 mm 2 mps 747 mmHg 87%
    20:00 -2°C° 0.1 mm 2 mps 747 mmHg 89%
    21:00 0°C° 0.1 mm 1 mps 747 mmHg 89%
    22:00 0°C° 0.1 mm 1 mps 748 mmHg 89%
    23:00 0°C° 0.1 mm 1 mps 748 mmHg 89%

    20 December, Wednesday

    Time Temperature Precipitation Wind Pressure Humidity
    00:00 0°C° 0 mm 1 mps 748 mmHg 89%
    01:00 0°C° 0 mm 1 mps 747 mmHg 89%
    02:00 -1°C° 0 mm 1 mps 747 mmHg 88%
    03:00 -1°C° 0 mm 1 mps 747 mmHg 87%
    04:00 -1°C° 0 mm 1 mps 747 mmHg 86%
    05:00 -1°C° 0 mm 1 mps 747 mmHg 85%
    06:00 -1°C° 0 mm 1 mps 747 mmHg 83%
    07:00 -2°C° 0 mm 1 mps 747 mmHg 81%
    08:00 -2°C° 0 mm 1 mps 747 mmHg 80%
    09:00 -1°C° 0 mm 1 mps 747 mmHg 74%
    10:00 0°C° 0 mm 1 mps 747 mmHg 69%
    11:00 +2°C° 0 mm 1 mps 747 mmHg 63%
    12:00 +2°C° 0 mm 1 mps 747 mmHg 62%
    13:00 +1°C° 0 mm 2 mps 747 mmHg 61%
    14:00 +1°C° 0 mm 2 mps 746 mmHg 60%
    15:00 +1°C° 0 mm 1 mps 746 mmHg 66%
    16:00 0°C° 0 mm 1 mps 747 mmHg 71%
    17:00 0°C° 0 mm 1 mps 747 mmHg 76%
    18:00 -1°C° 0 mm 1 mps 747 mmHg 77%
    19:00 -1°C° 0 mm 1 mps 747 mmHg 78%
    20:00 -1°C° 0 mm 1 mps 747 mmHg 79%
    21:00 -1°C° 0 mm 1 mps 748 mmHg 78%
    22:00 -1°C° 0 mm 1 mps 748 mmHg 78%
    23:00 -1°C° 0 mm 1 mps 748 mmHg 78%

    21 December, Thursday

    Time Temperature Precipitation Wind Pressure Humidity
    00:00 -2°C° 0 mm 1 mps 748 mmHg 78%
    01:00 -2°C° 0 mm 1 mps 748 mmHg 78%
    02:00 -2°C° 0 mm 1 mps 748 mmHg 79%
    03:00 -2°C° 0 mm 1 mps 747 mmHg 79%
    04:00 -2°C° 0 mm 1 mps 747 mmHg 80%
    05:00 -2°C° 0 mm 1 mps 747 mmHg 81%
    06:00 -2°C° 0 mm 1 mps 747 mmHg 81%
    07:00 -2°C° 0 mm 1 mps 747 mmHg 81%
    08:00 -3°C° 0 mm 1 mps 747 mmHg 81%
    09:00 -1°C° 0 mm 1 mps 747 mmHg 75%
    10:00 -2°C° 0 mm 2 mps 747 mmHg 69%
    11:00 -1°C° 0 mm 2 mps 747 mmHg 63%
    12:00 -1°C° 0 mm 2 mps 747 mmHg 61%
    13:00 +1°C° 0 mm 2 mps 746 mmHg 58%
    14:00 +1°C° 0 mm 2 mps 746 mmHg 56%
    15:00 +1°C° 0 mm 2 mps 746 mmHg 60%
    16:00 -1°C° 0 mm 2 mps 746 mmHg 64%
    17:00 0°C° 0 mm 1 mps 746 mmHg 69%
    18:00 0°C° 0 mm 1 mps 745 mmHg 68%
    19:00 -2°C° 0 mm 2 mps 745 mmHg 67%
    20:00 -2°C° 0 mm 2 mps 745 mmHg 66%
    21:00 -2°C° 0 mm 2 mps 745 mmHg 67%
    22:00 -1°C° 0 mm 2 mps 745 mmHg 68%
    23:00 -1°C° 0 mm 2 mps 744 mmHg 69%
    Show more